Location: York
(31.8935°S, 116.7682°E)
Time: 19:26:34
(UTC+08:00)

Vanguard 1 Rocket - Visible Passes

Search period start: 13 June 2021 00:00
Search period end: 23 June 2021 00:00
Orbit: 651 x 4225 km, 34.3° (Epoch: 12 June)

Date Brightness Start Highest point End Pass type
(mag) Time Alt. Az. Time Alt. Az. Time Alt. Az.
13 Jun 9.5 17:47:55 10° WNW 17:50:51 17° NNW 17:53:50 10° N visible
14 Jun 12.2 06:35:44 10° N 06:51:21 22° NE 07:02:43 10° ENE visible
15 Jun 12.4 05:27:40 10° NNE 05:37:06 13° NE 05:45:17 10° ENE visible
16 Jun 12.0 06:35:14 10° NNW 06:54:13 29° NE 07:07:18 10° E visible
17 Jun 12.2 05:24:42 10° N 05:40:00 20° NE 05:52:19 10° ENE visible
18 Jun 12.4 04:21:25 10° NNE 04:25:32 11° NE 04:29:30 10° NE visible
18 Jun 11.6 06:35:28 10° NNW 06:56:55 37° NE 07:11:13 10° E visible
19 Jun 12.0 05:23:45 10° N 05:42:41 27° NE 05:57:22 10° E visible
20 Jun 12.2 04:15:06 10° NNE 04:28:20 16° NE 04:40:09 10° ENE visible
20 Jun 11.4 06:36:15 10° NNW 06:59:32 46° NNE 07:14:47 10° E visible
21 Jun 11.7 05:23:45 10° NNW 05:45:12 34° NE 06:01:33 10° E visible
22 Jun 12.0 04:13:25 10° N 04:30:50 23° NE 04:46:07 10° E visible
22 Jun 11.1 06:37:26 10° NW 07:02:04 55° NNE 07:18:05 10° ESE visible
